Location: Lombard
(41.8800°N, 88.0080°W)
Time: 12:47:33
(UTC-05:00)

A-11 Canister half - Pass Details

Date: 01 February 2023
Orbit: 1512 x 1687 km, 47.2° (Epoch: 20 March)

Event Time Altitude Azimuth Distance (km) Brightness Sun altitude
Rises 17:14:52 0° 296° (WNW) 4,709 12.3 -2.2°
Reaches altitude 10° 17:17:58 10° 294° (WNW) 3,708 11.8 -2.7°
Maximum altitude 17:27:09 68° 215° (SW) 1,613 9.4 -4.3°
Drops below altitude 10° 17:36:15 10° 134° (SE) 3,668 10.7 -5.9°
Sets 17:39:18 0° 132° (SE) 4,655 11.2 -6.5°
